N693PD EDDM-LEPA

Flight info

Callsign N693PD
Flight time N/A
Altitude 28000
Route ALG2S/26L ALG Y109 UMTEX Y100 TRA DCT LUTIX DCT BENOT DCT NEMOS DCT GEVEA DCT INCUS DCT BALSI DCT RETNO DCT TUPOX DCT MTG DCT DIVKO DCT VATIR DCT PIVUS N852 VERSO L129 LUNIK
Aircraft PC12/L-SDFGRWY/S

Departure

Time 2026-05-06 18:27
Airport Munich Airport (EDDM)

Arrival

Time N/A
Airport Palma de Mallorca Airport (LEPA)
Time Latitude Longitude Altitude Speed Heading
2026-05-06 18:00 48.35360 11.80462 1466 ft 0 kts 263°
2026-05-06 18:21 48.35364 11.80431 1466 ft 5 kts 341°
2026-05-06 18:21 48.35422 11.80400 1466 ft 7 kts 274°
2026-05-06 18:22 48.35415 11.80299 1466 ft 13 kts 263°
2026-05-06 18:22 48.35405 11.80161 1466 ft 8 kts 257°
2026-05-06 18:22 48.35356 11.80160 1467 ft 12 kts 174°
2026-05-06 18:22 48.35256 11.80177 1467 ft 14 kts 174°
2026-05-06 18:23 48.35160 11.80194 1468 ft 13 kts 173°
2026-05-06 18:23 48.35104 11.80140 1468 ft 9 kts 264°
2026-05-06 18:23 48.35096 11.80031 1468 ft 14 kts 263°
2026-05-06 18:23 48.35084 11.79869 1468 ft 15 kts 263°
2026-05-06 18:24 48.35074 11.79734 1469 ft 11 kts 264°
2026-05-06 18:24 48.35024 11.79664 1469 ft 10 kts 178°
2026-05-06 18:24 48.34944 11.79678 1470 ft 14 kts 174°
2026-05-06 18:24 48.34842 11.79696 1470 ft 15 kts 172°
2026-05-06 18:25 48.34732 11.79714 1470 ft 13 kts 178°
2026-05-06 18:25 48.34666 11.79630 1470 ft 14 kts 231°
2026-05-06 18:25 48.34601 11.79497 1471 ft 14 kts 233°
2026-05-06 18:25 48.34542 11.79378 1472 ft 17 kts 233°
2026-05-06 18:26 48.34461 11.79214 1473 ft 20 kts 233°
2026-05-06 18:26 48.34372 11.79028 1474 ft 24 kts 251°
2026-05-06 18:26 48.34336 11.78610 1475 ft 69 kts 263°
2026-05-06 18:26 48.34262 11.77685 1630 ft 94 kts 257°
2026-05-06 18:27 48.34166 11.76727 2010 ft 95 kts 259°
2026-05-06 18:27 48.34094 11.75749 2443 ft 93 kts 261°
2026-05-06 18:27 48.34023 11.74816 2862 ft 92 kts 265°
2026-05-06 18:27 48.33944 11.73830 3190 ft 100 kts 265°
2026-05-06 18:28 48.33871 11.72764 3564 ft 107 kts 266°
2026-05-06 18:28 48.33797 11.71665 4049 ft 107 kts 266°
2026-05-06 18:28 48.33720 11.70583 4534 ft 107 kts 266°
2026-05-06 18:28 48.33643 11.69493 5011 ft 106 kts 266°
2026-05-06 18:29 48.33566 11.68413 5466 ft 107 kts 266°
2026-05-06 18:29 48.33487 11.67314 5908 ft 109 kts 266°
2026-05-06 18:29 48.33405 11.66161 6295 ft 114 kts 266°
2026-05-06 18:29 48.33296 11.64977 6714 ft 117 kts 264°
2026-05-06 18:30 48.33214 11.63743 7095 ft 121 kts 265°
2026-05-06 18:30 48.33131 11.62478 7476 ft 125 kts 263°
2026-05-06 18:30 48.33042 11.61167 7865 ft 127 kts 262°
2026-05-06 18:30 48.32947 11.59854 8245 ft 129 kts 262°
2026-05-06 18:31 48.32848 11.58489 8593 ft 134 kts 261°
2026-05-06 18:31 48.32745 11.57083 8952 ft 137 kts 260°
2026-05-06 18:31 48.32619 11.55676 9296 ft 138 kts 252°
2026-05-06 18:31 48.32324 11.54278 9586 ft 145 kts 246°
2026-05-06 18:32 48.31979 11.52827 9890 ft 149 kts 245°
2026-05-06 18:32 48.31621 11.51342 10218 ft 152 kts 245°
2026-05-06 18:32 48.31264 11.49874 10539 ft 153 kts 246°
2026-05-06 18:32 48.30893 11.48353 10854 ft 155 kts 246°
2026-05-06 18:33 48.30522 11.46818 11181 ft 156 kts 246°
2026-05-06 18:33 48.30150 11.45293 11474 ft 158 kts 246°
2026-05-06 18:33 48.29771 11.43734 11772 ft 160 kts 245°
2026-05-06 18:33 48.29388 11.42168 12071 ft 160 kts 245°
2026-05-06 18:34 48.29008 11.40602 12378 ft 160 kts 245°
2026-05-06 18:34 48.28619 11.39013 12677 ft 160 kts 245°
2026-05-06 18:34 48.28236 11.37444 12965 ft 160 kts 245°
2026-05-06 18:34 48.27854 11.35883 13226 ft 160 kts 245°
2026-05-06 18:35 48.27471 11.34315 13542 ft 159 kts 244°
2026-05-06 18:35 48.27091 11.32763 13838 ft 159 kts 244°
2026-05-06 18:35 48.26714 11.31219 14116 ft 159 kts 243°
2026-05-06 18:35 48.26331 11.29663 14384 ft 159 kts 244°
2026-05-06 18:36 48.25952 11.28119 14649 ft 159 kts 244°
2026-05-06 18:36 48.25567 11.26550 14903 ft 159 kts 243°
2026-05-06 18:36 48.25185 11.24997 15160 ft 159 kts 243°
2026-05-06 18:36 48.24804 11.23445 15412 ft 160 kts 243°
2026-05-06 18:37 48.24419 11.21884 15661 ft 160 kts 243°
2026-05-06 18:37 48.24034 11.20320 15908 ft 160 kts 243°
2026-05-06 18:37 48.23645 11.18740 16151 ft 161 kts 243°
2026-05-06 18:37 48.23259 11.17175 16388 ft 161 kts 243°
2026-05-06 18:38 48.22869 11.15591 16627 ft 161 kts 243°
2026-05-06 18:38 48.22480 11.14021 16859 ft 162 kts 243°
2026-05-06 18:38 48.22087 11.12430 17089 ft 162 kts 243°
2026-05-06 18:38 48.21696 11.10850 17311 ft 162 kts 243°
2026-05-06 18:39 48.21305 11.09269 17529 ft 163 kts 243°
2026-05-06 18:39 48.20913 11.07679 17746 ft 164 kts 243°
2026-05-06 18:39 48.20513 11.06074 17960 ft 164 kts 243°
2026-05-06 18:40 48.19720 11.02880 18381 ft 164 kts 243°
2026-05-06 18:40 48.19324 11.01282 18593 ft 164 kts 243°
2026-05-06 18:40 48.18924 10.99674 18806 ft 164 kts 243°
2026-05-06 18:40 48.18529 10.98084 19015 ft 164 kts 243°
2026-05-06 18:41 48.18131 10.96480 19226 ft 163 kts 242°
2026-05-06 18:41 48.17733 10.94883 19431 ft 163 kts 242°
2026-05-06 18:41 48.17341 10.93308 19633 ft 163 kts 242°
2026-05-06 18:41 48.16942 10.91710 19837 ft 163 kts 242°
2026-05-06 18:42 48.16542 10.90111 20033 ft 162 kts 242°
2026-05-06 18:42 48.16151 10.88542 20220 ft 162 kts 242°
2026-05-06 18:42 48.15754 10.86956 20413 ft 162 kts 242°
2026-05-06 18:42 48.15358 10.85371 20604 ft 162 kts 242°
2026-05-06 18:43 48.14962 10.83789 20791 ft 162 kts 242°
2026-05-06 18:43 48.14570 10.82223 20977 ft 161 kts 242°
2026-05-06 18:43 48.14176 10.80650 21164 ft 161 kts 242°
2026-05-06 18:43 48.13784 10.79087 21337 ft 160 kts 242°
2026-05-06 18:44 48.13395 10.77542 21512 ft 160 kts 242°
2026-05-06 18:44 48.13000 10.75966 21690 ft 160 kts 242°
2026-05-06 18:44 48.12611 10.74415 21870 ft 159 kts 242°
2026-05-06 18:44 48.12221 10.72861 22052 ft 159 kts 242°
2026-05-06 18:45 48.11837 10.71342 22215 ft 158 kts 242°
2026-05-06 18:45 48.11451 10.69807 22380 ft 158 kts 242°
2026-05-06 18:45 48.11064 10.68271 22546 ft 157 kts 242°
2026-05-06 18:45 48.10677 10.66739 22700 ft 157 kts 242°
2026-05-06 18:46 48.10289 10.65198 22851 ft 158 kts 242°
2026-05-06 18:46 48.09904 10.63678 22995 ft 158 kts 242°
2026-05-06 18:46 48.09514 10.62136 23155 ft 157 kts 242°
2026-05-06 18:46 48.09131 10.60617 23299 ft 157 kts 241°
2026-05-06 18:47 48.08742 10.59077 23455 ft 157 kts 242°
2026-05-06 18:47 48.08355 10.57546 23600 ft 157 kts 241°
2026-05-06 18:47 48.07965 10.56015 23742 ft 157 kts 242°
2026-05-06 18:47 48.07583 10.54506 23881 ft 156 kts 242°
2026-05-06 18:48 48.07196 10.52983 24014 ft 156 kts 241°
2026-05-06 18:48 48.06814 10.51473 24157 ft 156 kts 242°
2026-05-06 18:48 48.06431 10.49965 24299 ft 155 kts 241°
2026-05-06 18:48 48.06046 10.48452 24438 ft 155 kts 241°
2026-05-06 18:49 48.05666 10.46959 24574 ft 155 kts 240°
2026-05-06 18:49 48.05284 10.45454 24702 ft 155 kts 241°
2026-05-06 18:49 48.04899 10.43941 24840 ft 154 kts 241°
2026-05-06 18:49 48.04513 10.42434 24974 ft 154 kts 241°
2026-05-06 18:50 48.04131 10.40934 25093 ft 154 kts 242°
2026-05-06 18:50 48.03756 10.39463 25210 ft 154 kts 241°
2026-05-06 18:50 48.03371 10.37959 25334 ft 154 kts 241°
2026-05-06 18:50 48.02993 10.36480 25463 ft 153 kts 241°
2026-05-06 18:51 48.02612 10.34990 25581 ft 153 kts 241°
2026-05-06 18:51 48.02233 10.33505 25710 ft 152 kts 240°
2026-05-06 18:51 48.01858 10.32043 25827 ft 151 kts 240°
2026-05-06 18:51 48.01473 10.30542 25870 ft 156 kts 240°
2026-05-06 18:52 48.01075 10.29008 25868 ft 161 kts 241°
2026-05-06 18:52 48.00683 10.27481 25871 ft 167 kts 241°
2026-05-06 18:52 48.00263 10.25846 25874 ft 172 kts 242°
2026-05-06 18:52 47.99828 10.24152 25872 ft 176 kts 241°
2026-05-06 18:53 47.99388 10.22446 25869 ft 180 kts 242°
2026-05-06 18:53 47.98936 10.20678 25867 ft 184 kts 241°
2026-05-06 18:53 47.98470 10.18867 25862 ft 187 kts 242°
2026-05-06 18:53 47.98001 10.17053 25869 ft 190 kts 242°
2026-05-06 18:54 47.97526 10.15201 25866 ft 189 kts 242°
2026-05-06 18:54 47.97062 10.13397 25862 ft 186 kts 242°
2026-05-06 18:54 47.96602 10.11612 25865 ft 185 kts 242°
2026-05-06 18:54 47.96130 10.09788 25866 ft 188 kts 241°
2026-05-06 18:55 47.95661 10.07981 25869 ft 190 kts 242°
2026-05-06 18:55 47.95181 10.06128 25867 ft 192 kts 242°
2026-05-06 18:55 47.94697 10.04260 25865 ft 193 kts 242°
2026-05-06 18:55 47.94208 10.02375 25866 ft 194 kts 242°
2026-05-06 18:56 47.93723 10.00508 25871 ft 195 kts 242°
2026-05-06 18:56 47.93225 9.98588 25865 ft 197 kts 242°
2026-05-06 18:56 47.92736 9.96707 25867 ft 197 kts 242°
2026-05-06 18:56 47.92239 9.94788 25865 ft 198 kts 242°
2026-05-06 18:57 47.91734 9.92854 25863 ft 199 kts 242°
2026-05-06 18:57 47.91237 9.90942 25868 ft 199 kts 242°
2026-05-06 18:57 47.90730 9.89005 25869 ft 201 kts 242°
2026-05-06 18:57 47.90223 9.87067 25870 ft 202 kts 242°
2026-05-06 18:58 47.89713 9.85109 25878 ft 202 kts 242°
2026-05-06 18:58 47.89202 9.83161 25878 ft 203 kts 242°
2026-05-06 18:58 47.88686 9.81188 25881 ft 204 kts 242°
2026-05-06 18:58 47.88175 9.79235 25881 ft 206 kts 242°
2026-05-06 18:59 47.87648 9.77228 25881 ft 207 kts 242°
2026-05-06 18:59 47.87124 9.75229 25880 ft 208 kts 242°
2026-05-06 18:59 47.86597 9.73221 25880 ft 209 kts 242°
2026-05-06 18:59 47.86065 9.71199 25881 ft 209 kts 242°
2026-05-06 19:00 47.85538 9.69196 25882 ft 210 kts 242°
2026-05-06 19:00 47.85006 9.67174 25886 ft 210 kts 242°
2026-05-06 19:00 47.84474 9.65158 25883 ft 210 kts 242°
2026-05-06 19:00 47.83940 9.63126 25885 ft 211 kts 243°
2026-05-06 19:01 47.83572 9.60984 25885 ft 217 kts 252°
2026-05-06 19:01 47.83307 9.58771 25883 ft 217 kts 252°
2026-05-06 19:01 47.83045 9.56547 25882 ft 218 kts 252°
2026-05-06 19:01 47.82784 9.54342 25887 ft 218 kts 252°
2026-05-06 19:02 47.82520 9.52124 25885 ft 219 kts 252°
2026-05-06 19:02 47.82253 9.49899 25887 ft 219 kts 252°
2026-05-06 19:02 47.81983 9.47647 25888 ft 220 kts 252°
2026-05-06 19:02 47.81714 9.45425 25884 ft 220 kts 252°
2026-05-06 19:03 47.81441 9.43166 25884 ft 221 kts 252°
2026-05-06 19:03 47.81170 9.40926 25888 ft 221 kts 252°
2026-05-06 19:03 47.80897 9.38678 25884 ft 221 kts 252°
2026-05-06 19:03 47.80627 9.36453 25890 ft 221 kts 252°
2026-05-06 19:04 47.80352 9.34189 25887 ft 222 kts 251°
2026-05-06 19:04 47.80074 9.31918 25887 ft 222 kts 251°
2026-05-06 19:04 47.79798 9.29661 25882 ft 223 kts 252°
2026-05-06 19:04 47.79519 9.27371 25888 ft 222 kts 252°
2026-05-06 19:05 47.79245 9.25135 25892 ft 223 kts 252°
2026-05-06 19:05 47.78964 9.22854 25886 ft 223 kts 252°
2026-05-06 19:05 47.78688 9.20599 25889 ft 223 kts 252°
2026-05-06 19:05 47.78407 9.18327 25889 ft 224 kts 252°
2026-05-06 19:06 47.78126 9.16042 25888 ft 224 kts 252°
2026-05-06 19:06 47.77845 9.13766 25886 ft 224 kts 251°
2026-05-06 19:06 47.77566 9.11510 25895 ft 224 kts 251°
2026-05-06 19:06 47.77280 9.09209 25893 ft 225 kts 252°
2026-05-06 19:07 47.76995 9.06920 25890 ft 225 kts 252°
2026-05-06 19:07 47.76712 9.04653 25886 ft 226 kts 252°
2026-05-06 19:07 47.76424 9.02338 25888 ft 226 kts 252°
2026-05-06 19:07 47.76138 9.00049 25893 ft 226 kts 252°
2026-05-06 19:08 47.75849 8.97738 25888 ft 227 kts 252°
2026-05-06 19:08 47.75561 8.95443 25892 ft 227 kts 252°
2026-05-06 19:08 47.75270 8.93116 25889 ft 227 kts 252°
2026-05-06 19:08 47.74981 8.90809 25894 ft 227 kts 252°
2026-05-06 19:09 47.74691 8.88504 25891 ft 228 kts 252°
2026-05-06 19:09 47.74398 8.86191 25895 ft 228 kts 252°
2026-05-06 19:09 47.74107 8.83892 25895 ft 228 kts 252°
2026-05-06 19:09 47.73813 8.81575 25898 ft 229 kts 252°
2026-05-06 19:10 47.73518 8.79254 25892 ft 229 kts 252°
2026-05-06 19:10 47.73226 8.76941 25894 ft 229 kts 252°
2026-05-06 19:10 47.72928 8.74594 25897 ft 229 kts 252°
2026-05-06 19:10 47.72632 8.72286 25897 ft 230 kts 252°
2026-05-06 19:11 47.72330 8.69927 25897 ft 231 kts 253°
2026-05-06 19:11 47.72033 8.67611 25891 ft 231 kts 252°
2026-05-06 19:11 47.71732 8.65252 25894 ft 232 kts 253°
2026-05-06 19:11 47.71433 8.62900 25893 ft 232 kts 252°
2026-05-06 19:12 47.71130 8.60549 25893 ft 232 kts 252°
2026-05-06 19:12 47.70828 8.58206 25901 ft 232 kts 252°
2026-05-06 19:12 47.70520 8.55832 25898 ft 233 kts 252°
2026-05-06 19:12 47.70216 8.53476 25894 ft 234 kts 253°
2026-05-06 19:13 47.69910 8.51107 25897 ft 234 kts 253°
2026-05-06 19:13 47.69603 8.48734 25897 ft 234 kts 253°
2026-05-06 19:13 47.69294 8.46364 25900 ft 235 kts 253°
2026-05-06 19:13 47.68921 8.44029 25901 ft 230 kts 240°
2026-05-06 19:14 47.68122 8.41998 25906 ft 226 kts 230°
2026-05-06 19:14 47.67220 8.40111 25897 ft 226 kts 229°
2026-05-06 19:14 47.66302 8.38212 25899 ft 226 kts 229°
2026-05-06 19:14 47.65385 8.36322 25903 ft 227 kts 229°
2026-05-06 19:15 47.64468 8.34430 25903 ft 227 kts 229°
2026-05-06 19:15 47.63537 8.32511 25897 ft 228 kts 229°
2026-05-06 19:15 47.62618 8.30610 25897 ft 228 kts 229°
2026-05-06 19:15 47.61688 8.28694 25902 ft 228 kts 229°
2026-05-06 19:16 47.60770 8.26800 25902 ft 228 kts 229°
2026-05-06 19:16 47.59835 8.24874 25901 ft 228 kts 229°
2026-05-06 19:16 47.58910 8.22974 25903 ft 228 kts 229°
2026-05-06 19:16 47.57988 8.21073 25909 ft 228 kts 229°
2026-05-06 19:17 47.57068 8.19183 25910 ft 228 kts 229°
2026-05-06 19:17 47.56139 8.17276 25904 ft 229 kts 229°
2026-05-06 19:17 47.55207 8.15364 25908 ft 229 kts 229°
2026-05-06 19:17 47.54281 8.13462 25905 ft 229 kts 229°
2026-05-06 19:18 47.53339 8.11533 25914 ft 229 kts 229°
2026-05-06 19:18 47.52419 8.09649 25907 ft 229 kts 229°
2026-05-06 19:18 47.51482 8.07728 25912 ft 229 kts 229°
2026-05-06 19:18 47.50554 8.05832 25914 ft 229 kts 229°
2026-05-06 19:19 47.49628 8.03940 25912 ft 229 kts 229°
2026-05-06 19:19 47.48682 8.02007 25913 ft 229 kts 229°
2026-05-06 19:19 47.47745 8.00094 25916 ft 229 kts 229°
2026-05-06 19:19 47.46814 7.98199 25912 ft 230 kts 229°
2026-05-06 19:20 47.45873 7.96278 25910 ft 230 kts 229°
2026-05-06 19:20 47.44936 7.94365 25914 ft 230 kts 229°
2026-05-06 19:20 47.43992 7.92446 25914 ft 230 kts 229°
2026-05-06 19:20 47.43062 7.90554 25909 ft 230 kts 229°
2026-05-06 19:21 47.42116 7.88635 25908 ft 230 kts 229°
2026-05-06 19:21 47.41177 7.86726 25912 ft 230 kts 229°
2026-05-06 19:21 47.40231 7.84804 25909 ft 231 kts 229°
2026-05-06 19:21 47.39283 7.82871 25910 ft 231 kts 229°
2026-05-06 19:22 47.38353 7.80967 25910 ft 230 kts 229°
2026-05-06 19:22 47.37404 7.79038 25915 ft 230 kts 229°
2026-05-06 19:22 47.36473 7.77143 25911 ft 230 kts 229°
2026-05-06 19:22 47.35477 7.75293 25914 ft 228 kts 223°
2026-05-06 19:23 47.34384 7.73598 25910 ft 228 kts 221°
2026-05-06 19:23 47.33276 7.71917 25908 ft 228 kts 221°
2026-05-06 19:23 47.32166 7.70241 25911 ft 228 kts 221°
2026-05-06 19:23 47.31054 7.68565 25907 ft 228 kts 221°
2026-05-06 19:24 47.29957 7.66912 25907 ft 228 kts 221°
2026-05-06 19:24 47.28840 7.65232 25908 ft 228 kts 221°
2026-05-06 19:24 47.27741 7.63581 25908 ft 228 kts 221°
2026-05-06 19:24 47.26620 7.61895 25910 ft 228 kts 221°
2026-05-06 19:25 47.25520 7.60245 25906 ft 228 kts 221°
2026-05-06 19:25 47.24417 7.58590 25908 ft 227 kts 221°
2026-05-06 19:25 47.23309 7.56931 25910 ft 228 kts 221°
2026-05-06 19:25 47.22198 7.55266 25911 ft 228 kts 221°
2026-05-06 19:26 47.21093 7.53611 25910 ft 228 kts 221°
2026-05-06 19:26 47.19984 7.51951 25911 ft 227 kts 221°
2026-05-06 19:26 47.18862 7.50274 25910 ft 227 kts 221°
2026-05-06 19:26 47.17757 7.48625 25908 ft 227 kts 221°
2026-05-06 19:27 47.16649 7.46970 25910 ft 227 kts 221°
2026-05-06 19:27 47.15537 7.45308 25909 ft 227 kts 221°
2026-05-06 19:27 47.14418 7.43640 25755 ft 232 kts 221°
2026-05-06 19:27 47.13267 7.41931 25395 ft 243 kts 221°
2026-05-06 19:28 47.12045 7.40113 24996 ft 252 kts 222°
2026-05-06 19:28 47.10813 7.38279 24618 ft 258 kts 222°
2026-05-06 19:28 47.09546 7.36393 24195 ft 261 kts 222°
2026-05-06 19:28 47.08256 7.34476 23728 ft 265 kts 221°
2026-05-06 19:29 47.06951 7.32538 23154 ft 268 kts 222°
2026-05-06 19:29 47.05658 7.30617 22601 ft 267 kts 222°
2026-05-06 19:29 47.04360 7.28691 22054 ft 265 kts 222°
2026-05-06 19:29 47.03081 7.26791 21686 ft 258 kts 222°
2026-05-06 19:30 47.01836 7.24948 21449 ft 253 kts 222°
2026-05-06 19:30 47.00598 7.23116 21217 ft 252 kts 222°
2026-05-06 19:30 46.99351 7.21275 20991 ft 255 kts 222°
2026-05-06 19:30 46.98103 7.19435 20671 ft 260 kts 222°
2026-05-06 19:31 46.96814 7.17532 20316 ft 265 kts 222°
2026-05-06 19:31 46.95515 7.15615 19954 ft 269 kts 222°
2026-05-06 19:31 46.92856 7.11697 19225 ft 274 kts 223°
2026-05-06 19:32 46.91511 7.09715 18863 ft 275 kts 223°
2026-05-06 19:32 46.90158 7.07725 18493 ft 276 kts 223°
2026-05-06 19:32 46.88801 7.05729 18131 ft 276 kts 223°
2026-05-06 19:32 46.87450 7.03741 17772 ft 277 kts 223°
2026-05-06 19:33 46.86086 7.01742 17399 ft 277 kts 223°
2026-05-06 19:33 46.84734 6.99759 17039 ft 277 kts 223°
2026-05-06 19:33 46.83376 6.97767 16675 ft 277 kts 223°
2026-05-06 19:33 46.82024 6.95787 16312 ft 277 kts 224°
2026-05-06 19:34 46.80656 6.93786 15945 ft 276 kts 224°
2026-05-06 19:34 46.79292 6.91791 15575 ft 276 kts 224°
2026-05-06 19:34 46.77940 6.89815 15216 ft 276 kts 224°
2026-05-06 19:34 46.76585 6.87834 14849 ft 276 kts 224°
2026-05-06 19:35 46.75237 6.85866 14490 ft 274 kts 224°
2026-05-06 19:35 46.73900 6.83916 14126 ft 272 kts 224°
2026-05-06 19:35 46.72574 6.81983 13773 ft 270 kts 224°
2026-05-06 19:35 46.71237 6.80039 13403 ft 269 kts 225°
2026-05-06 19:36 46.69922 6.78127 13058 ft 268 kts 225°
2026-05-06 19:36 46.68609 6.76219 12704 ft 267 kts 225°
2026-05-06 19:36 46.67294 6.74310 12350 ft 266 kts 225°
2026-05-06 19:36 46.65980 6.72402 12003 ft 266 kts 225°
2026-05-06 19:37 46.64675 6.70509 11662 ft 266 kts 225°
2026-05-06 19:37 46.63372 6.68616 11309 ft 263 kts 225°
2026-05-06 19:37 46.62081 6.66750 10962 ft 260 kts 225°
2026-05-06 19:37 46.60793 6.64886 10603 ft 259 kts 226°
2026-05-06 19:38 46.59521 6.63045 10270 ft 258 kts 226°
2026-05-06 19:38 46.58246 6.61203 9922 ft 257 kts 226°
2026-05-06 19:38 46.57000 6.59400 9591 ft 256 kts 226°
2026-05-06 19:38 46.55742 6.57582 9245 ft 255 kts 226°
2026-05-06 19:39 46.54474 6.55752 8909 ft 255 kts 226°
2026-05-06 19:39 46.53227 6.53955 8584 ft 254 kts 226°
2026-05-06 19:39 46.51986 6.52164 8252 ft 251 kts 226°
2026-05-06 19:39 46.50751 6.50387 7907 ft 248 kts 226°
2026-05-06 19:40 46.49518 6.48616 7580 ft 245 kts 226°
2026-05-06 19:40 46.48329 6.46908 7266 ft 243 kts 226°
2026-05-06 19:40 46.47131 6.45185 6985 ft 241 kts 226°
2026-05-06 19:40 46.46173 6.43236 6779 ft 235 kts 238°
2026-05-06 19:41 46.44900 6.41813 6513 ft 236 kts 211°
2026-05-06 19:41 46.43648 6.40281 6227 ft 235 kts 225°
2026-05-06 19:41 46.42498 6.38572 5948 ft 236 kts 230°
2026-05-06 19:41 46.41381 6.36824 5730 ft 235 kts 228°
2026-05-06 19:42 46.40265 6.35111 5546 ft 235 kts 227°
2026-05-06 19:42 46.39128 6.33409 5281 ft 236 kts 226°
2026-05-06 19:42 46.37973 6.31710 4990 ft 235 kts 226°
2026-05-06 19:42 46.36826 6.30019 4683 ft 235 kts 226°
2026-05-06 19:43 46.35680 6.28332 4373 ft 236 kts 226°
2026-05-06 19:43 46.34560 6.26664 4058 ft 223 kts 226°
2026-05-06 19:43 46.33512 6.25132 3762 ft 209 kts 226°
2026-05-06 19:43 46.32519 6.23674 3480 ft 199 kts 226°
2026-05-06 19:44 46.31569 6.22280 3214 ft 190 kts 227°
2026-05-06 19:44 46.30676 6.20967 2964 ft 177 kts 227°
2026-05-06 19:44 46.29884 6.19809 2733 ft 147 kts 227°
2026-05-06 19:44 46.29224 6.18839 2543 ft 122 kts 227°
2026-05-06 19:45 46.28685 6.18047 2400 ft 100 kts 226°
2026-05-06 19:45 46.28229 6.17378 2295 ft 87 kts 226°
2026-05-06 19:45 46.27812 6.16768 2176 ft 86 kts 226°
2026-05-06 19:45 46.27383 6.16169 2058 ft 85 kts 222°
2026-05-06 19:46 46.26956 6.15566 1977 ft 87 kts 226°
2026-05-06 19:46 46.26537 6.14917 1858 ft 89 kts 226°
2026-05-06 19:46 46.26109 6.14282 1737 ft 87 kts 225°
2026-05-06 19:46 46.25692 6.13671 1609 ft 85 kts 226°
2026-05-06 19:47 46.25267 6.13047 1481 ft 87 kts 225°
2026-05-06 19:47 46.24838 6.12411 1370 ft 84 kts 227°
2026-05-06 19:47 46.24520 6.11944 1370 ft 48 kts 226°
2026-05-06 19:47 46.24311 6.11638 1372 ft 39 kts 225°
2026-05-06 19:48 46.24136 6.11379 1374 ft 33 kts 226°
2026-05-06 19:48 46.23979 6.11147 1376 ft 31 kts 224°
2026-05-06 19:48 46.23886 6.11005 1377 ft 14 kts 233°
2026-05-06 19:48 46.23912 6.10896 1377 ft 13 kts 314°
2026-05-06 19:49 46.23980 6.10802 1377 ft 14 kts 316°
2026-05-06 19:49 46.24044 6.10703 1377 ft 12 kts 279°
2026-05-06 19:49 46.23976 6.10587 1379 ft 32 kts 224°
2026-05-06 19:49 46.23848 6.10399 1380 ft 22 kts 225°
2026-05-06 19:50 46.23717 6.10208 1382 ft 29 kts 227°
2026-05-06 19:50 46.23671 6.10097 1383 ft 0 kts
2026-05-06 19:50 46.23680 6.10098 1383 ft 0 kts